| time (UTC) | temp F | wind direction | speed MPH | gust MPH | rain 1hr in | rain 24hr in | rain mn in | humidity % | barometer mb |
| 20260504203016 | 50 | 37 | 7.0 | 14.0 | 0.00 | 0.00 | 0.00 | 48 | 1010.7 |
| 20260504201515 | 49 | 23 | 5.0 | 10.0 | 0.00 | 0.00 | 0.00 | 49 | 1010.8 |
| 20260504200015 | 48 | 40 | 6.0 | 11.0 | 0.00 | 0.00 | 0.00 | 49 | 1010.8 |
| 20260504194518 | 48 | 56 | 9.0 | 16.0 | 0.00 | 0.00 | 0.00 | 50 | 1010.7 |
| 20260504193016 | 49 | 47 | 9.0 | 12.0 | 0.00 | 0.00 | 0.00 | 50 | 1010.8 |
| 20260504191510 | 48 | 40 | 8.0 | 15.0 | 0.00 | 0.00 | 0.00 | 53 | 1010.9 |
| 20260504190014 | 48 | 34 | 8.0 | 14.0 | 0.00 | 0.00 | 0.00 | 51 | 1010.7 |
| 20260504184526 | 48 | 68 | 6.0 | 14.0 | 0.00 | 0.00 | 0.00 | 52 | 1010.8 |
| 20260504183007 | 49 | 31 | 8.0 | 14.0 | 0.00 | 0.00 | 0.00 | 50 | 1010.9 |
| 20260504181507 | 49 | 26 | 7.0 | 15.0 | 0.00 | 0.00 | 0.00 | 49 | 1011.0 |
| 20260504180005 | 49 | 7 | 8.0 | 12.0 | 0.00 | 0.00 | 0.00 | 49 | 1010.9 |
| 20260504174504 | 49 | 23 | 5.0 | 15.0 | 0.00 | 0.00 | 0.00 | 50 | 1011.0 |
| 20260504173009 | 48 | 52 | 6.0 | 13.0 | 0.00 | 0.00 | 0.00 | 49 | 1011.1 |
| 20260504171501 | 48 | 30 | 5.0 | 15.0 | 0.00 | 0.00 | 0.00 | 49 | 1011.1 |
| 20260504081512 | 40 | 176 | 3.0 | 6.0 | 0.00 | 0.00 | 0.00 | 65 | 1009.3 |
| 20260504044549 | 44 | 67 | 1.0 | 4.0 | 0.00 | 0.00 | 0.00 | 58 | 1007.8 |
| 20260504043050 | 45 | 91 | 0.0 | 4.0 | 0.00 | 0.00 | 0.00 | 56 | 1007.7 |
| 20260504041547 | 46 | 73 | 0.0 | 4.0 | 0.00 | 0.00 | 0.00 | 55 | 1007.6 |
| 20260504040047 | 46 | 64 | 3.0 | 4.0 | 0.00 | 0.00 | 0.00 | 56 | 1007.5 |
| 20260504034554 | 48 | 96 | 0.0 | 2.0 | 0.00 | 0.00 | 0.00 | 53 | 1007.4 |
| 20260504033055 | 49 | 96 | 1.0 | 2.0 | 0.00 | 0.00 | 0.00 | 51 | 1007.1 |
| 20260504031600 | 51 | 103 | 1.0 | 2.0 | 0.00 | 0.00 | 0.00 | 46 | 1007.0 |
| 20260504030108 | 53 | 36 | 1.0 | 4.0 | 0.00 | 0.00 | 0.00 | 41 | 1006.7 |
| 20260504024549 | 55 | 248 | 1.0 | 5.0 | 0.00 | 0.00 | 0.00 | 40 | 1006.5 |
| 20260504023044 | 59 | 241 | 4.0 | 9.0 | 0.00 | 0.00 | 0.00 | 33 | 1006.3 |
| 20260504021545 | 61 | 249 | 6.0 | 12.0 | 0.00 | 0.00 | 0.00 | 30 | 1006.3 |
| 20260504020046 | 63 | 253 | 5.0 | 11.0 | 0.00 | 0.00 | 0.00 | 31 | 1006.3 |
| 20260504014542 | 63 | 251 | 8.0 | 12.0 | 0.00 | 0.00 | 0.00 | 29 | 1006.3 |
| 20260504013041 | 64 | 293 | 11.0 | 18.0 | 0.00 | 0.00 | 0.00 | 27 | 1006.2 |
| 20260504011540 | 65 | 269 | 11.0 | 15.0 | 0.00 | 0.00 | 0.00 | 27 | 1006.4 |
| 20260504010042 | 65 | 273 | 12.0 | 17.0 | 0.00 | 0.00 | 0.00 | 28 | 1006.5 |
| 20260504004539 | 65 | 265 | 12.0 | 21.0 | 0.00 | 0.00 | 0.00 | 29 | 1006.6 |
| 20260504003042 | 66 | 248 | 9.0 | 14.0 | 0.00 | 0.00 | 0.00 | 27 | 1006.5 |
| 20260504001536 | 66 | 297 | 8.0 | 17.0 | 0.00 | 0.00 | 0.00 | 27 | 1006.6 |
| 20260504000139 | 66 | 255 | 10.0 | 19.0 | 0.00 | 0.00 | 0.00 | 27 | 1006.6 |
| 20260503234534 | 67 | 251 | 10.0 | 17.0 | 0.00 | 0.00 | 0.00 | 28 | 1006.8 |
| 20260503233038 | 67 | 256 | 9.0 | 18.0 | 0.00 | 0.00 | 0.00 | 28 | 1006.9 |
| 20260503231531 | 67 | 267 | 12.0 | 15.0 | 0.00 | 0.00 | 0.00 | 24 | 1007.0 |
| 20260503230029 | 67 | 255 | 10.0 | 20.0 | 0.00 | 0.00 | 0.00 | 23 | 1007.2 |
| 20260503224529 | 67 | 242 | 14.0 | 19.0 | 0.00 | 0.00 | 0.00 | 24 | 1007.1 |
| 20260503223022 | 67 | 259 | 5.0 | 16.0 | 0.00 | 0.00 | 0.00 | 25 | 1007.4 |
| 20260503221520 | 67 | 260 | 12.0 | 16.0 | 0.00 | 0.00 | 0.00 | 28 | 1007.6 |
| 20260503220021 | 66 | 244 | 7.0 | 20.0 | 0.00 | 0.00 | 0.00 | 30 | 1007.9 |
| 20260503214514 | 66 | 259 | 12.0 | 19.0 | 0.00 | 0.00 | 0.00 | 30 | 1008.0 |
| 20260503213014 | 66 | 249 | 11.0 | 17.0 | 0.00 | 0.00 | 0.00 | 30 | 1008.2 |
| 20260503211508 | 66 | 251 | 8.0 | 16.0 | 0.00 | 0.00 | 0.00 | 31 | 1008.7 |
| 20260503210006 | 66 | 201 | 10.0 | 16.0 | 0.00 | 0.00 | 0.00 | 31 | 1009.0 |
| 20260503204503 | 65 | 259 | 5.0 | 17.0 | 0.00 | 0.00 | 0.00 | 35 | 1009.2 |